When you browse on this site, cookies collect data to enhance your experience and personalize the content and advertising you see.
Visit our Privacy Policy to learn more. By continuing to use the site, you agree to this use of cookies and data.
  • In Slovakia
  • List of Countries
  • For 7 days
  • Water Temperature
  • Satellite Maps
  • Weather Map
  • Weather Widgets
  • user-avatar
    Login

    Hourly Weather Etchmiadzin

    Today, 23 March, Saturday

    Time Temperature Precipitation Wind Pressure Humidity
    00:00 +6°C° 0 mm 1 mps 688 mmHg 46%
    01:00 +6°C° 0 mm 1 mps 688 mmHg 47%
    02:00 +5°C° 0 mm 1 mps 688 mmHg 49%
    03:00 +5°C° 0 mm 1 mps 688 mmHg 50%
    04:00 +4°C° 0 mm 1 mps 688 mmHg 51%
    05:00 +4°C° 0 mm 1 mps 687 mmHg 53%
    06:00 +4°C° 0 mm 1 mps 687 mmHg 54%
    07:00 +4°C° 0 mm 2 mps 687 mmHg 49%
    08:00 +5°C° 0 mm 2 mps 687 mmHg 44%
    09:00 +7°C° 0 mm 2 mps 686 mmHg 39%
    10:00 +8°C° 0 mm 3 mps 686 mmHg 36%
    11:00 +9°C° 0 mm 3 mps 685 mmHg 34%
    12:00 +10°C° 0 mm 3 mps 685 mmHg 32%
    13:00 +10°C° 0 mm 3 mps 684 mmHg 33%
    14:00 +11°C° 0 mm 3 mps 684 mmHg 33%
    15:00 +11°C° 0 mm 3 mps 683 mmHg 34%
    16:00 +11°C° 0 mm 3 mps 683 mmHg 36%
    17:00 +10°C° 0 mm 3 mps 683 mmHg 38%
    18:00 +9°C° 0 mm 3 mps 683 mmHg 40%
    19:00 +9°C° 0 mm 3 mps 683 mmHg 41%
    20:00 +8°C° 0 mm 3 mps 683 mmHg 42%
    21:00 +7°C° 0 mm 3 mps 683 mmHg 43%
    22:00 +7°C° 0 mm 3 mps 683 mmHg 44%
    23:00 +7°C° 0 mm 3 mps 682 mmHg 45%

    Tomorrow, 24 March, Sunday

    Time Temperature Precipitation Wind Pressure Humidity
    00:00 +7°C° 0 mm 2 mps 682 mmHg 45%
    01:00 +7°C° 0.1 mm 2 mps 682 mmHg 49%
    02:00 +6°C° 0.1 mm 2 mps 681 mmHg 52%
    03:00 +6°C° 0.1 mm 2 mps 681 mmHg 55%
    04:00 +6°C° 0.1 mm 2 mps 681 mmHg 57%
    05:00 +6°C° 0.1 mm 2 mps 681 mmHg 58%
    06:00 +6°C° 0.1 mm 2 mps 680 mmHg 60%
    07:00 +7°C° 0.1 mm 3 mps 680 mmHg 57%
    08:00 +8°C° 0.1 mm 3 mps 680 mmHg 54%
    09:00 +9°C° 0.1 mm 3 mps 680 mmHg 52%
    10:00 +10°C° 0.2 mm 3 mps 680 mmHg 50%
    11:00 +10°C° 0.2 mm 3 mps 679 mmHg 48%
    12:00 +12°C° 0.2 mm 2 mps 679 mmHg 46%
    13:00 +13°C° 0.3 mm 2 mps 679 mmHg 46%
    14:00 +13°C° 0.3 mm 2 mps 678 mmHg 47%
    15:00 +13°C° 0.3 mm 2 mps 678 mmHg 47%
    16:00 +11°C° 1 mm 3 mps 678 mmHg 52%
    17:00 +10°C° 1 mm 3 mps 679 mmHg 57%
    18:00 +7°C° 1 mm 4 mps 679 mmHg 63%
    19:00 +7°C° 0.4 mm 4 mps 680 mmHg 63%
    20:00 +7°C° 0.4 mm 3 mps 680 mmHg 63%
    21:00 +7°C° 0.4 mm 3 mps 681 mmHg 63%
    22:00 +5°C° 0.1 mm 3 mps 681 mmHg 63%
    23:00 +5°C° 0.1 mm 3 mps 681 mmHg 63%

    Day after tomorrow, 25 March, Monday

    Time Temperature Precipitation Wind Pressure Humidity
    00:00 +4°C° 0.1 mm 3 mps 681 mmHg 63%
    01:00 +4°C° 0 mm 3 mps 681 mmHg 62%
    02:00 +5°C° 0 mm 2 mps 681 mmHg 61%
    03:00 +4°C° 0 mm 2 mps 681 mmHg 60%
    04:00 +4°C° 0 mm 2 mps 681 mmHg 60%
    05:00 +4°C° 0 mm 2 mps 681 mmHg 61%
    06:00 +3°C° 0 mm 2 mps 681 mmHg 61%
    07:00 +5°C° 0 mm 2 mps 681 mmHg 56%
    08:00 +6°C° 0 mm 2 mps 681 mmHg 52%
    09:00 +8°C° 0 mm 2 mps 681 mmHg 47%
    10:00 +9°C° 0 mm 2 mps 681 mmHg 45%
    11:00 +12°C° 0 mm 2 mps 681 mmHg 43%
    12:00 +13°C° 0 mm 2 mps 680 mmHg 41%
    13:00 +13°C° 0 mm 2 mps 680 mmHg 41%
    14:00 +13°C° 0 mm 3 mps 679 mmHg 41%
    15:00 +13°C° 0 mm 3 mps 679 mmHg 40%
    16:00 +12°C° 0 mm 3 mps 679 mmHg 42%
    17:00 +12°C° 0 mm 3 mps 679 mmHg 44%
    18:00 +11°C° 0 mm 3 mps 679 mmHg 46%
    19:00 +10°C° 0 mm 3 mps 680 mmHg 49%
    20:00 +9°C° 0 mm 3 mps 680 mmHg 51%
    21:00 +8°C° 0 mm 3 mps 681 mmHg 53%
    22:00 +8°C° 0 mm 3 mps 681 mmHg 54%
    23:00 +7°C° 0 mm 3 mps 681 mmHg 56%

    26 March, Tuesday

    Time Temperature Precipitation Wind Pressure Humidity
    00:00 +7°C° 0 mm 2 mps 681 mmHg 57%
    01:00 +7°C° 0 mm 2 mps 681 mmHg 58%
    02:00 +6°C° 0 mm 2 mps 681 mmHg 59%
    03:00 +6°C° 0 mm 2 mps 681 mmHg 60%
    04:00 +6°C° 0 mm 2 mps 681 mmHg 60%
    05:00 +6°C° 0 mm 2 mps 681 mmHg 61%
    06:00 +7°C° 0 mm 1 mps 682 mmHg 62%
    07:00 +8°C° 0 mm 1 mps 682 mmHg 57%
    08:00 +9°C° 0 mm 1 mps 682 mmHg 53%
    09:00 +9°C° 0 mm 0 mps 682 mmHg 48%
    10:00 +11°C° 0 mm 1 mps 682 mmHg 46%
    11:00 +12°C° 0 mm 1 mps 682 mmHg 45%
    12:00 +12°C° 0 mm 1 mps 681 mmHg 43%
    13:00 +13°C° 0 mm 1 mps 681 mmHg 41%
    14:00 +13°C° 0 mm 1 mps 681 mmHg 40%
    15:00 +14°C° 0 mm 1 mps 681 mmHg 39%
    16:00 +13°C° 0 mm 1 mps 681 mmHg 40%
    17:00 +13°C° 0 mm 1 mps 681 mmHg 41%
    18:00 +13°C° 0 mm 2 mps 681 mmHg 43%
    19:00 +12°C° 0 mm 2 mps 681 mmHg 46%
    20:00 +10°C° 0 mm 2 mps 682 mmHg 49%
    21:00 +9°C° 0 mm 2 mps 682 mmHg 52%
    22:00 +9°C° 0 mm 2 mps 682 mmHg 54%
    23:00 +8°C° 0 mm 2 mps 683 mmHg 55%

    27 March, Wednesday

    Time Temperature Precipitation Wind Pressure Humidity
    00:00 +8°C° 0 mm 2 mps 683 mmHg 57%
    01:00 +8°C° 0 mm 1 mps 683 mmHg 58%
    02:00 +8°C° 0 mm 1 mps 683 mmHg 59%
    03:00 +7°C° 0 mm 1 mps 683 mmHg 60%
    04:00 +7°C° 0 mm 1 mps 683 mmHg 61%
    05:00 +7°C° 0 mm 1 mps 683 mmHg 62%
    06:00 +6°C° 0 mm 1 mps 683 mmHg 62%
    07:00 +8°C° 0 mm 1 mps 684 mmHg 58%
    08:00 +9°C° 0 mm 1 mps 684 mmHg 54%
    09:00 +9°C° 0 mm 2 mps 684 mmHg 50%
    10:00 +10°C° 0 mm 2 mps 684 mmHg 47%
    11:00 +12°C° 0 mm 2 mps 683 mmHg 45%
    12:00 +12°C° 0 mm 3 mps 683 mmHg 42%
    13:00 +14°C° 0 mm 2 mps 683 mmHg 41%
    14:00 +14°C° 0 mm 2 mps 683 mmHg 40%
    15:00 +14°C° 0 mm 2 mps 683 mmHg 39%
    16:00 +14°C° 0 mm 2 mps 683 mmHg 41%
    17:00 +12°C° 0 mm 3 mps 683 mmHg 42%
    18:00 +12°C° 0 mm 3 mps 684 mmHg 44%
    19:00 +11°C° 0 mm 3 mps 684 mmHg 45%
    20:00 +10°C° 0 mm 2 mps 685 mmHg 46%
    21:00 +10°C° 0 mm 2 mps 685 mmHg 48%
    22:00 +9°C° 0.1 mm 2 mps 685 mmHg 50%
    23:00 +9°C° 0.1 mm 2 mps 685 mmHg 51%

    28 March, Thursday

    Time Temperature Precipitation Wind Pressure Humidity
    00:00 +9°C° 0.1 mm 2 mps 685 mmHg 53%
    01:00 +8°C° 0 mm 2 mps 685 mmHg 55%
    02:00 +9°C° 0 mm 1 mps 685 mmHg 57%
    03:00 +8°C° 0 mm 1 mps 685 mmHg 59%
    04:00 +8°C° 0 mm 1 mps 685 mmHg 61%
    05:00 +8°C° 0 mm 1 mps 685 mmHg 62%
    06:00 +6°C° 0 mm 2 mps 685 mmHg 63%
    07:00 +7°C° 0 mm 2 mps 685 mmHg 59%
    08:00 +8°C° 0 mm 2 mps 686 mmHg 54%
    09:00 +10°C° 0 mm 2 mps 686 mmHg 49%
    10:00 +10°C° 0.1 mm 2 mps 686 mmHg 48%
    11:00 +10°C° 0.1 mm 2 mps 685 mmHg 47%
    12:00 +12°C° 0.1 mm 2 mps 685 mmHg 46%
    13:00 +12°C° 0.1 mm 2 mps 685 mmHg 46%
    14:00 +12°C° 0.1 mm 2 mps 684 mmHg 46%
    15:00 +13°C° 0.1 mm 2 mps 684 mmHg 46%
    16:00 +12°C° 0.1 mm 2 mps 684 mmHg 46%
    17:00 +12°C° 0.1 mm 2 mps 684 mmHg 47%
    18:00 +10°C° 0.1 mm 2 mps 684 mmHg 48%
    19:00 +10°C° 0 mm 2 mps 684 mmHg 49%
    20:00 +9°C° 0 mm 2 mps 685 mmHg 51%
    21:00 +8°C° 0 mm 2 mps 685 mmHg 52%
    22:00 +8°C° 0 mm 2 mps 685 mmHg 52%
    23:00 +8°C° 0 mm 2 mps 685 mmHg 53%
    Show more